Voltar ao catálogo

STARLINK-34952

AtivoComunicaçõesSSO
NORAD 65197·PAYLOAD·🇺🇸 United States

Lançado Aug 14, 2025 de Vandenberg Space Force Base

Loading…

Próximas Passagens (próximas 24 horas)

TLE

AtualizadoSource: CelesTrak SupGP

Época: Sep 14, 2026, 21:36 UTC

1 65197C 25175Z   26257.90048611  .00015803  00000+0  49051-3 0  2574
2 65197  97.2843 127.0142 0001914  98.1587  57.3904 15.33432810    12

Acompanhe STARLINK-34952 em tempo real com AllMySat

Download on the App Store